{"data":{"norad_id":62227,"intl_designator":"2024-231K","name":"STARLINK-11469 [DTC]","alt_names":[],"object_type":"PAYLOAD","status":"ACTIVE","operator":null,"country":"US","launch_date":"2024-12-05","launch_site_code":"AFWTR","launch_vehicle":null,"mission":null,"orbit_class":"UNKNOWN","rcs_meters":null,"size_class":null,"mass_kg":null,"dimensions":null,"purposes":["comms"],"wikipedia_slug":null,"has_3d_model":false,"image_url":null,"decayed_at":null,"tle_current":{"epoch":"2026-09-21T06:59:55.476384Z","epoch_age_seconds":109291,"freshness":"FRESH","line1":"1 62227U 24231K   26264.29161431  .00174046  00000+0  14125-2 0  9994","line2":"2 62227  53.1566 216.9690 0000910  78.2061 281.9059 15.69692708104130","mean_motion":15.69692708,"eccentricity":9.1e-5,"inclination_deg":53.1566,"raan_deg":216.969,"arg_perigee_deg":78.2061,"mean_anomaly_deg":281.9059,"bstar":0.0014125,"rev_number":10413,"period_min":91.737700803538,"perigee_km":359.16308385473,"apogee_km":360.38938406331,"semimajor_km":6737.913233959,"source":"CELESTRAK","updated_at":"2026-09-22T09:00:49.563240Z"}}}